Regional Weather Roundup
Issued by NWS

Home | Current Version | Previous Version | Graphics & Text | Print | Product List | Glossary On
Versions: 1 2 3 4 5 6 7 8 9 10 11 12 13 14 15 16 17 18 19 20 21 22 23 24 25 26 27 28 29 30 31 32 33 34 35 36 37 38 39 40 41 42 43 44 45 46 47 48 49 50
000
ASUS45 KSLC 200410
RWRUT

UTAH REGIONAL WEATHER ROUNDUP
NATIONAL WEATHER SERVICE SALT LAKE CITY UT
1000 PM MDT TUE AUG 19 2014

UTZ001>011-023>025-200500-

NORTHERN UTAH

CITY           SKY/WX    TMP DP  RH WIND       PRES   REMARKS
HILL AFB       MOCLDY    66  52  59 E7        29.92R
LOGAN          CLEAR     65  51  60 N8        29.90R
OGDEN          MOCLDY    68  51  54 S8        29.89R
PROVO AIRPORT  PTCLDY    63  55  77 CALM      29.94R
SALT LAKE CITY MOCLDY    70  55  59 S8        29.88R
VERNAL         CLOUDY    61  58  90 S5        30.00R
WENDOVER       CLOUDY    70  45  40 W21       29.90F
HEBER CITY     CLOUDY    61  54  77 W3        29.99R
WEST JORDAN    CLOUDY    68  63  83 S7        29.92R

$$

UTZ012>022-026-027-200500-

SOUTHERN UTAH

CITY           SKY/WX    TMP DP  RH WIND       PRES   REMARKS
BRYCE CANYON   PTCLDY    51  50  96 CALM      30.14R
CEDAR CITY     CLEAR     61  54  77 SW12      30.00R
MILFORD        MOCLDY    68  56  65 S13       29.94R
MOAB/CYNLANDS  MOCLDY    63  62  97 E7        29.94R
PRICE          CLOUDY    62  57  83 CALM      30.02R
ST GEORGE      PTCLDY    72  63  73 CALM      29.90R

$$

REGIONAL REPORTS     COLORADO/ARIZONA

CITY           SKY/WX    TMP DP  RH WIND       PRES   REMARKS
CRAIG, CO      LGT RAIN  64  51  62 S14       30.03R
GRAND JUNCTION CLOUDY    62  60  93 S3        29.98S
RIFLE          CLOUDY    60  58  92 E8        30.06R
MONTROSE       CLOUDY    63  59  87 NW3       30.06R
CORTEZ         CLOUDY    63  58  83 CALM      30.08R
PAGE, AZ       PTCLDY    70  59  68 CALM      29.96R
GRAND CANYON     N/A    N/A N/A N/A MISG        N/A
KINGMAN        CLEAR     71  55  56 NW5G17    29.90R
FLAGSTAFF      CLOUDY    53  50  89 CALM      30.18S

$$

REGIONAL REPORTS    NEVADA/IDAHO/WYOMING

CITY           SKY/WX    TMP DP  RH WIND       PRES   REMARKS
LAS VEGAS, NV  MOCLDY    82  55  39 E3        29.74R
ELY            CLOUDY    54  32  43 NW3       30.09S
ELKO           CLOUDY    66  48  52 E9        29.94F
POCATELLO, ID  LGT RAIN  63  53  70 N14       29.98R
BURLEY         CLOUDY    68  50  52 E9        29.86R
EVANSTON, WY   PTCLDY    54  50  86 SW5       30.05S
ROCK SPRINGS   MOCLDY    55  50  83 S8        30.03S

$$



USA.gov is the U.S. government's official web portal to all federal, state and local government web resources and services.